Tracking 19800 objects as of 24-Jul-2019
HD Live streaming from Space Station
objects crossing your sky now

LEMUR 2 TOMHENDERSON

Track LEMUR 2 TOMHENDERSON now!
10-day predictions
LEMUR 2 TOMHENDERSON is classified as:


NORAD ID: 43561
Int'l Code: 2018-046H
Perigee: 479.2 km
Apogee: 490.3 km
Inclination: 51.6 °
Period: 94.2 minutes
Semi major axis: 6855 km
RCS: Unknown
Launch date: May 21, 2018
Source: United States (US)
Launch site: WALLOPS ISLAND (WLPIS)
aabbcc
Your satellite tracking list
Your tracking list is empty




NASA's NSSDC Master Catalog

Two Line Element Set (TLE):
1 43561U 18046H   19204.53251457 +.00001203 +00000-0 +54041-4 0  9990
2 43561 051.6417 248.4810 0008054 208.8392 151.2144 15.29393027056450
Source of the keplerian elements: AFSPC